| time (UTC) | temp F | wind direction | speed MPH | gust MPH | rain 1hr in | rain 24hr in | rain mn in | humidity % | barometer mb |
| 20260507073554 | 59 | 241 | 1.0 | 8.0 | 0.00 | 0.04 | 0.02 | 52 | 1013.2 |
| 20260507073053 | 59 | 253 | 2.0 | 8.0 | 0.00 | 0.04 | 0.02 | 52 | 1013.3 |
| 20260507072553 | 59 | 263 | 3.0 | 9.0 | 0.00 | 0.04 | 0.02 | 51 | 1013.3 |
| 20260507072052 | 59 | 236 | 3.0 | 9.0 | 0.00 | 0.04 | 0.02 | 50 | 1013.2 |
| 20260507071552 | 59 | 232 | 2.0 | 5.0 | 0.00 | 0.04 | 0.02 | 49 | 1013.2 |
| 20260507071051 | 59 | 284 | 2.0 | 5.0 | 0.00 | 0.04 | 0.02 | 49 | 1013.2 |
| 20260507070550 | 59 | 263 | 2.0 | 5.0 | 0.00 | 0.04 | 0.02 | 48 | 1013.2 |
| 20260507070049 | 59 | 261 | 1.0 | 7.0 | 0.00 | 0.04 | 0.02 | 47 | 1013.0 |
| 20260507065549 | 59 | 241 | 0.0 | 7.0 | 0.00 | 0.04 | 0.02 | 46 | 1013.0 |
| 20260507065047 | 59 | 238 | 3.0 | 7.0 | 0.00 | 0.04 | 0.02 | 44 | 1012.9 |
| 20260507064547 | 58 | 256 | 1.0 | 5.0 | 0.00 | 0.04 | 0.02 | 43 | 1012.9 |
| 20260507064047 | 58 | 259 | 2.0 | 7.0 | 0.00 | 0.04 | 0.02 | 42 | 1012.9 |
| 20260507063545 | 58 | 225 | 3.0 | 7.0 | 0.00 | 0.04 | 0.02 | 42 | 1013.0 |
| 20260507063045 | 58 | 236 | 1.0 | 5.0 | 0.00 | 0.04 | 0.02 | 41 | 1013.0 |
| 20260507062544 | 57 | 198 | 1.0 | 5.0 | 0.00 | 0.04 | 0.02 | 40 | 1012.9 |
| 20260507062046 | 57 | 132 | 1.0 | 7.0 | 0.00 | 0.04 | 0.02 | 40 | 1013.0 |
| 20260507061543 | 57 | 210 | 2.0 | 7.0 | 0.00 | 0.04 | 0.02 | 39 | 1013.0 |
| 20260507061044 | 57 | 212 | 3.0 | 9.0 | 0.00 | 0.04 | 0.02 | 40 | 1013.0 |
| 20260507060542 | 57 | 173 | 3.0 | 9.0 | 0.00 | 0.04 | 0.02 | 36 | 1013.0 |
| 20260507060047 | 57 | 211 | 5.0 | 9.0 | 0.00 | 0.04 | 0.02 | 32 | 1012.9 |
| 20260507055641 | 57 | 206 | 4.0 | 8.0 | 0.00 | 0.04 | 0.02 | 30 | 1012.9 |
| 20260507055042 | 56 | 177 | 3.0 | 7.0 | 0.00 | 0.04 | 0.02 | 29 | 1012.8 |
| 20260507054552 | 55 | 194 | 3.0 | 7.0 | 0.00 | 0.04 | 0.02 | 29 | 1012.7 |
| 20260507054039 | 55 | 204 | 3.0 | 6.0 | 0.00 | 0.04 | 0.02 | 31 | 1012.7 |
| 20260507053537 | 54 | 159 | 3.0 | 6.0 | 0.00 | 0.04 | 0.02 | 31 | 1012.7 |
| 20260507053036 | 54 | 169 | 3.0 | 6.0 | 0.00 | 0.04 | 0.02 | 31 | 1012.8 |
| 20260507052536 | 54 | 183 | 2.0 | 6.0 | 0.00 | 0.04 | 0.02 | 31 | 1012.8 |
| 20260507052035 | 54 | 181 | 3.0 | 6.0 | 0.00 | 0.04 | 0.02 | 31 | 1012.8 |
| 20260507051535 | 54 | 196 | 1.0 | 4.0 | 0.00 | 0.04 | 0.02 | 31 | 1012.8 |
| 20260507051034 | 54 | 194 | 1.0 | 4.0 | 0.00 | 0.04 | 0.02 | 32 | 1012.8 |
| 20260507050532 | 54 | 188 | 1.0 | 5.0 | 0.00 | 0.04 | 0.02 | 32 | 1012.8 |
| 20260507050131 | 54 | 211 | 2.0 | 5.0 | 0.00 | 0.04 | 0.02 | 32 | 1012.7 |
| 20260507045531 | 54 | 203 | 3.0 | 5.0 | 0.00 | 0.04 | 0.02 | 33 | 1012.7 |
| 20260507045029 | 54 | 190 | 2.0 | 4.0 | 0.00 | 0.04 | 0.02 | 33 | 1012.8 |
| 20260507044527 | 54 | 217 | 1.0 | 6.0 | 0.00 | 0.04 | 0.02 | 33 | 1012.7 |
| 20260507044026 | 54 | 186 | 1.0 | 6.0 | 0.00 | 0.04 | 0.02 | 33 | 1012.6 |
| 20260507043526 | 54 | 209 | 1.0 | 3.0 | 0.00 | 0.04 | 0.02 | 33 | 1012.6 |
| 20260507043025 | 54 | 159 | 1.0 | 3.0 | 0.00 | 0.04 | 0.02 | 33 | 1012.6 |
| 20260507042525 | 54 | 175 | 0.0 | 4.0 | 0.00 | 0.04 | 0.02 | 33 | 1012.4 |
| 20260507042024 | 54 | 153 | 1.0 | 7.0 | 0.00 | 0.04 | 0.02 | 33 | 1012.4 |
| 20260507041523 | 54 | 219 | 2.0 | 7.0 | 0.00 | 0.04 | 0.02 | 33 | 1012.3 |
| 20260507041022 | 54 | 180 | 2.0 | 7.0 | 0.00 | 0.04 | 0.02 | 33 | 1012.3 |
| 20260507040523 | 54 | 173 | 0.0 | 4.0 | 0.00 | 0.04 | 0.02 | 33 | 1012.2 |
| 20260507040022 | 54 | 178 | 0.0 | 5.0 | 0.00 | 0.04 | 0.02 | 33 | 1012.2 |
| 20260507035521 | 54 | 188 | 2.0 | 5.0 | 0.00 | 0.04 | 0.02 | 33 | 1012.2 |
| 20260507035022 | 54 | 189 | 1.0 | 4.0 | 0.00 | 0.04 | 0.02 | 34 | 1012.2 |
| 20260507034521 | 54 | 201 | 2.0 | 5.0 | 0.00 | 0.04 | 0.02 | 34 | 1012.1 |
| 20260507034021 | 54 | 190 | 1.0 | 5.0 | 0.00 | 0.04 | 0.02 | 34 | 1012.1 |
| 20260507033521 | 54 | 192 | 2.0 | 5.0 | 0.00 | 0.04 | 0.02 | 34 | 1012.0 |
| 20260507033023 | 54 | 170 | 0.0 | 3.0 | 0.00 | 0.04 | 0.02 | 34 | 1012.0 |
| 20260507032520 | 54 | 181 | 0.0 | 3.0 | 0.00 | 0.04 | 0.02 | 34 | 1012.0 |
| 20260507032023 | 54 | 163 | 0.0 | 2.0 | 0.00 | 0.04 | 0.02 | 34 | 1012.0 |
| 20260507031519 | 54 | 128 | 0.0 | 2.0 | 0.00 | 0.04 | 0.02 | 34 | 1012.0 |
| 20260507031022 | 54 | 171 | 0.0 | 2.0 | 0.00 | 0.04 | 0.02 | 35 | 1011.9 |
| 20260507030520 | 54 | 150 | 0.0 | 3.0 | 0.00 | 0.04 | 0.02 | 35 | 1012.0 |
| 20260507030019 | 54 | 173 | 0.0 | 3.0 | 0.00 | 0.04 | 0.02 | 35 | 1012.0 |
| 20260507025518 | 54 | 137 | 1.0 | 3.0 | 0.00 | 0.04 | 0.02 | 35 | 1012.0 |
| 20260507025018 | 54 | 172 | 0.0 | 3.0 | 0.00 | 0.04 | 0.02 | 35 | 1012.0 |
| 20260507024521 | 54 | 130 | 0.0 | 3.0 | 0.01 | 0.04 | 0.02 | 35 | 1012.0 |
| 20260507024025 | 54 | 142 | 0.0 | 5.0 | 0.02 | 0.04 | 0.02 | 35 | 1012.0 |
| 20260507023517 | 55 | 135 | 1.0 | 5.0 | 0.02 | 0.04 | 0.02 | 35 | 1012.0 |
| 20260507023017 | 55 | 132 | 2.0 | 4.0 | 0.02 | 0.04 | 0.02 | 36 | 1011.9 |
| 20260507022516 | 55 | 183 | 0.0 | 4.0 | 0.02 | 0.04 | 0.02 | 36 | 1012.0 |
| 20260507022018 | 55 | 238 | 1.0 | 4.0 | 0.02 | 0.04 | 0.02 | 36 | 1012.0 |
| 20260507021515 | 55 | 242 | 0.0 | 3.0 | 0.02 | 0.04 | 0.02 | 36 | 1011.9 |
| 20260507021015 | 55 | 205 | 0.0 | 3.0 | 0.02 | 0.04 | 0.02 | 36 | 1011.9 |
| 20260507020517 | 55 | 237 | 1.0 | 3.0 | 0.02 | 0.04 | 0.02 | 37 | 1011.9 |
| 20260507020015 | 55 | 222 | 0.0 | 2.0 | 0.02 | 0.04 | 0.02 | 37 | 1011.9 |
| 20260507015515 | 55 | 215 | 0.0 | 3.0 | 0.02 | 0.04 | 0.02 | 37 | 1011.9 |
| 20260507015014 | 55 | 208 | 0.0 | 3.0 | 0.01 | 0.03 | 0.02 | 37 | 1011.9 |
| 20260507014518 | 55 | 213 | 0.0 | 3.0 | 0.01 | 0.03 | 0.02 | 37 | 1011.9 |
| 20260507014014 | 55 | 171 | 0.0 | 3.0 | 0.00 | 0.02 | 0.01 | 37 | 1011.8 |
| 20260507013513 | 55 | 175 | 0.0 | 3.0 | 0.00 | 0.02 | 0.01 | 37 | 1011.8 |
| 20260507013013 | 55 | 216 | 1.0 | 3.0 | 0.00 | 0.02 | 0.01 | 37 | 1011.8 |
| 20260507012513 | 55 | 196 | 0.0 | 3.0 | 0.00 | 0.02 | 0.01 | 38 | 1011.9 |
| 20260507012015 | 55 | 210 | 1.0 | 4.0 | 0.00 | 0.02 | 0.01 | 38 | 1012.0 |
| 20260507011512 | 55 | 214 | 1.0 | 4.0 | 0.00 | 0.02 | 0.01 | 38 | 1012.0 |
| 20260507011013 | 55 | 194 | 2.0 | 4.0 | 0.00 | 0.02 | 0.01 | 38 | 1011.9 |
| 20260507010511 | 55 | 211 | 0.0 | 4.0 | 0.00 | 0.02 | 0.01 | 38 | 1011.9 |
| 20260507010011 | 55 | 186 | 0.0 | 4.0 | 0.00 | 0.02 | 0.01 | 39 | 1011.9 |
| 20260507005510 | 55 | 198 | 1.0 | 6.0 | 0.00 | 0.02 | 0.01 | 39 | 1011.9 |
| 20260507005013 | 55 | 185 | 1.0 | 6.0 | 0.00 | 0.02 | 0.01 | 39 | 1011.9 |
| 20260507004513 | 55 | 195 | 2.0 | 6.0 | 0.00 | 0.02 | 0.01 | 39 | 1011.8 |
| 20260507004013 | 55 | 198 | 2.0 | 6.0 | 0.00 | 0.02 | 0.01 | 39 | 1011.8 |
| 20260507003509 | 55 | 215 | 0.0 | 4.0 | 0.00 | 0.02 | 0.01 | 40 | 1011.9 |
| 20260507003008 | 55 | 211 | 0.0 | 6.0 | 0.00 | 0.02 | 0.01 | 40 | 1011.8 |
| 20260507002508 | 55 | 205 | 2.0 | 6.0 | 0.00 | 0.02 | 0.01 | 40 | 1011.8 |
| 20260507002007 | 55 | 173 | 0.0 | 4.0 | 0.00 | 0.02 | 0.01 | 40 | 1011.7 |
| 20260507001506 | 55 | 144 | 1.0 | 4.0 | 0.00 | 0.02 | 0.01 | 40 | 1011.7 |
| 20260507001007 | 56 | 198 | 0.0 | 2.0 | 0.00 | 0.02 | 0.01 | 41 | 1011.7 |
| 20260507000505 | 56 | 187 | 0.0 | 4.0 | 0.00 | 0.02 | 0.01 | 41 | 1011.8 |
| 20260507000005 | 56 | 179 | 1.0 | 5.0 | 0.00 | 0.02 | 0.01 | 41 | 1011.7 |
| 20260506235505 | 56 | 197 | 2.0 | 6.0 | 0.00 | 0.02 | 0.01 | 41 | 1011.7 |
| 20260506235003 | 56 | 202 | 3.0 | 6.0 | 0.00 | 0.02 | 0.01 | 41 | 1011.9 |
| 20260506234503 | 56 | 194 | 1.0 | 6.0 | 0.00 | 0.02 | 0.01 | 42 | 1012.0 |
| 20260506234003 | 56 | 180 | 1.0 | 4.0 | 0.00 | 0.02 | 0.01 | 42 | 1012.0 |
| 20260506233503 | 56 | 206 | 2.0 | 4.0 | 0.00 | 0.02 | 0.01 | 43 | 1012.1 |
| 20260506233002 | 56 | 161 | 1.0 | 5.0 | 0.00 | 0.02 | 0.01 | 43 | 1012.1 |
| 20260506232502 | 56 | 166 | 1.0 | 5.0 | 0.01 | 0.02 | 0.01 | 44 | 1012.1 |
| 20260506232101 | 56 | 166 | 1.0 | 5.0 | 0.01 | 0.02 | 0.01 | 44 | 1012.1 |
| 20260506231600 | 56 | 143 | 0.0 | 3.0 | 0.01 | 0.02 | 0.01 | 44 | 1012.1 |
| 20260506231103 | 56 | 161 | 0.0 | 3.0 | 0.01 | 0.02 | 0.01 | 44 | 1012.2 |
| 20260506230558 | 56 | 157 | 0.0 | 3.0 | 0.01 | 0.02 | 0.01 | 44 | 1012.1 |
| 20260506230059 | 56 | 192 | 1.0 | 3.0 | 0.01 | 0.02 | 0.01 | 45 | 1012.2 |
| 20260506225558 | 56 | 189 | 1.0 | 7.0 | 0.01 | 0.02 | 0.01 | 45 | 1012.2 |
| 20260506225057 | 56 | 150 | 2.0 | 7.0 | 0.01 | 0.02 | 0.01 | 45 | 1012.2 |
| 20260506224557 | 56 | 145 | 0.0 | 4.0 | 0.01 | 0.02 | 0.01 | 45 | 1012.2 |
| 20260506224059 | 56 | 121 | 1.0 | 5.0 | 0.01 | 0.02 | 0.01 | 45 | 1012.2 |
| 20260506223559 | 56 | 189 | 1.0 | 6.0 | 0.01 | 0.02 | 0.01 | 46 | 1012.3 |
| 20260506223102 | 56 | 154 | 1.0 | 6.0 | 0.01 | 0.02 | 0.01 | 46 | 1012.3 |
| 20260506222556 | 56 | 150 | 2.0 | 7.0 | 0.00 | 0.02 | 0.00 | 46 | 1012.4 |
| 20260506222055 | 56 | 186 | 3.0 | 7.0 | 0.00 | 0.02 | 0.00 | 46 | 1012.3 |
| 20260506221556 | 56 | 64 | 2.0 | 7.0 | 0.00 | 0.02 | 0.00 | 46 | 1012.3 |
| 20260506221053 | 56 | 178 | 1.0 | 5.0 | 0.00 | 0.02 | 0.00 | 46 | 1012.3 |
| 20260506220553 | 56 | 142 | 1.0 | 9.0 | 0.00 | 0.02 | 0.00 | 46 | 1012.2 |
| 20260506220052 | 56 | 190 | 2.0 | 9.0 | 0.00 | 0.02 | 0.02 | 46 | 1012.3 |
| 20260506215551 | 56 | 126 | 2.0 | 7.0 | 0.00 | 0.02 | 0.02 | 46 | 1012.2 |
| 20260506215052 | 56 | 134 | 3.0 | 9.0 | 0.00 | 0.02 | 0.02 | 46 | 1012.2 |
| 20260506214553 | 56 | 169 | 3.0 | 9.0 | 0.00 | 0.02 | 0.02 | 46 | 1012.1 |
| 20260506214051 | 56 | 144 | 2.0 | 7.0 | 0.00 | 0.02 | 0.02 | 45 | 1012.2 |
| 20260506213554 | 56 | 158 | 2.0 | 5.0 | 0.00 | 0.02 | 0.02 | 45 | 1012.2 |
| 20260506213110 | 56 | 156 | 0.0 | 3.0 | 0.00 | 0.02 | 0.02 | 46 | 1012.2 |
| 20260506212551 | 57 | 150 | 1.0 | 4.0 | 0.00 | 0.02 | 0.02 | 46 | 1012.2 |
| 20260506212051 | 57 | 150 | 1.0 | 4.0 | 0.00 | 0.02 | 0.02 | 46 | 1012.2 |
| 20260506211551 | 57 | 122 | 1.0 | 3.0 | 0.00 | 0.02 | 0.02 | 46 | 1012.2 |
| 20260506211050 | 57 | 118 | 0.0 | 4.0 | 0.00 | 0.02 | 0.02 | 46 | 1012.2 |
| 20260506210551 | 57 | 101 | 0.0 | 4.0 | 0.00 | 0.02 | 0.02 | 47 | 1012.1 |
| 20260506210054 | 57 | 113 | 0.0 | 3.0 | 0.00 | 0.02 | 0.02 | 47 | 1012.1 |
| 20260506205550 | 57 | 175 | 0.0 | 3.0 | 0.00 | 0.02 | 0.02 | 47 | 1012.1 |
| 20260506205050 | 57 | 161 | 1.0 | 4.0 | 0.00 | 0.02 | 0.02 | 47 | 1012.2 |
| 20260506204552 | 57 | 168 | 0.0 | 4.0 | 0.00 | 0.02 | 0.02 | 48 | 1012.2 |
| 20260506204049 | 57 | 127 | 0.0 | 4.0 | 0.00 | 0.02 | 0.02 | 48 | 1012.1 |
| 20260506203553 | 57 | 186 | 1.0 | 4.0 | 0.00 | 0.02 | 0.02 | 48 | 1012.2 |
| 20260506203050 | 57 | 166 | 1.0 | 5.0 | 0.00 | 0.02 | 0.02 | 49 | 1012.1 |
| 20260506202553 | 58 | 144 | 1.0 | 7.0 | 0.00 | 0.02 | 0.02 | 49 | 1012.0 |
| 20260506202049 | 58 | 151 | 1.0 | 7.0 | 0.01 | 0.02 | 0.02 | 49 | 1012.1 |
| 20260506201549 | 58 | 132 | 1.0 | 8.0 | 0.02 | 0.02 | 0.02 | 50 | 1012.0 |
| 20260506201047 | 58 | 129 | 3.0 | 9.0 | 0.02 | 0.02 | 0.02 | 51 | 1011.9 |
| 20260506200547 | 58 | 136 | 3.0 | 10.0 | 0.02 | 0.02 | 0.02 | 52 | 1011.9 |
| 20260506200048 | 58 | 167 | 4.0 | 10.0 | 0.02 | 0.02 | 0.02 | 53 | 1011.8 |
| 20260506195547 | 58 | 180 | 3.0 | 10.0 | 0.02 | 0.02 | 0.02 | 54 | 1011.9 |
| 20260506195048 | 59 | 140 | 4.0 | 10.0 | 0.02 | 0.02 | 0.02 | 55 | 1011.8 |
| 20260506194548 | 59 | 140 | 4.0 | 10.0 | 0.02 | 0.02 | 0.02 | 56 | 1011.7 |
| 20260506194052 | 59 | 146 | 4.0 | 9.0 | 0.02 | 0.02 | 0.02 | 57 | 1011.7 |
| 20260506193547 | 60 | 139 | 4.0 | 8.0 | 0.02 | 0.02 | 0.02 | 58 | 1011.7 |
| 20260506193047 | 60 | 144 | 2.0 | 7.0 | 0.02 | 0.02 | 0.02 | 59 | 1011.8 |
| 20260506192546 | 60 | 186 | 3.0 | 8.0 | 0.02 | 0.02 | 0.02 | 60 | 1011.8 |
| 20260506192049 | 60 | 179 | 3.0 | 8.0 | 0.01 | 0.01 | 0.01 | 61 | 1011.8 |
| 20260506191546 | 60 | 197 | 3.0 | 6.0 | 0.00 | 0.00 | 0.00 | 62 | 1011.7 |
| 20260506191046 | 60 | 215 | 2.0 | 5.0 | 0.00 | 0.00 | 0.00 | 63 | 1011.6 |
| 20260506190545 | 60 | 228 | 2.0 | 5.0 | 0.00 | 0.00 | 0.00 | 63 | 1011.3 |
| 20260506190045 | 60 | 219 | 2.0 | 9.0 | 0.00 | 0.00 | 0.00 | 63 | 1011.2 |
| 20260506185545 | 60 | 210 | 3.0 | 11.0 | 0.00 | 0.00 | 0.00 | 63 | 1011.2 |
| 20260506185045 | 60 | 201 | 5.0 | 11.0 | 0.00 | 0.00 | 0.00 | 63 | 1011.1 |
| 20260506184545 | 60 | 219 | 3.0 | 9.0 | 0.00 | 0.00 | 0.00 | 63 | 1011.0 |
| 20260506184045 | 60 | 119 | 3.0 | 9.0 | 0.00 | 0.00 | 0.00 | 63 | 1011.0 |
| 20260506183545 | 60 | 192 | 2.0 | 6.0 | 0.00 | 0.00 | 0.00 | 63 | 1011.0 |
| 20260506183045 | 60 | 175 | 1.0 | 4.0 | 0.00 | 0.00 | 0.00 | 63 | 1011.0 |
| 20260506182544 | 60 | 179 | 1.0 | 5.0 | 0.00 | 0.00 | 0.00 | 63 | 1011.0 |
| 20260506182043 | 61 | 219 | 2.0 | 6.0 | 0.00 | 0.00 | 0.00 | 63 | 1011.0 |
| 20260506181544 | 61 | 208 | 2.0 | 6.0 | 0.00 | 0.00 | 0.00 | 63 | 1011.1 |
| 20260506181044 | 61 | 210 | 2.0 | 6.0 | 0.00 | 0.00 | 0.00 | 63 | 1011.1 |
| 20260506180546 | 61 | 215 | 2.0 | 6.0 | 0.00 | 0.00 | 0.00 | 63 | 1011.0 |
| 20260506180055 | 61 | 208 | 1.0 | 5.0 | 0.00 | 0.00 | 0.00 | 63 | 1010.8 |
| 20260506175543 | 61 | 214 | 1.0 | 7.0 | 0.00 | 0.00 | 0.00 | 62 | 1010.7 |
| 20260506175044 | 61 | 188 | 2.0 | 13.0 | 0.00 | 0.00 | 0.00 | 62 | 1010.6 |
| 20260506174545 | 62 | 248 | 3.0 | 13.0 | 0.00 | 0.00 | 0.00 | 63 | 1010.7 |
| 20260506174043 | 62 | 217 | 5.0 | 13.0 | 0.00 | 0.00 | 0.00 | 63 | 1010.7 |
| 20260506173543 | 62 | 213 | 3.0 | 11.0 | 0.00 | 0.00 | 0.00 | 63 | 1010.8 |
| 20260506173043 | 62 | 213 | 3.0 | 11.0 | 0.00 | 0.00 | 0.00 | 63 | 1010.8 |
| 20260506172542 | 62 | 229 | 2.0 | 16.0 | 0.00 | 0.00 | 0.00 | 63 | 1010.7 |
| 20260506172042 | 63 | 232 | 6.0 | 16.0 | 0.00 | 0.00 | 0.00 | 63 | 1010.8 |
| 20260506171544 | 63 | 225 | 2.0 | 12.0 | 0.00 | 0.00 | 0.00 | 64 | 1010.8 |
| 20260506171045 | 63 | 234 | 4.0 | 10.0 | 0.00 | 0.00 | 0.00 | 64 | 1010.6 |
| 20260506170541 | 63 | 199 | 4.0 | 12.0 | 0.00 | 0.00 | 0.00 | 64 | 1010.7 |
| 20260506170055 | 63 | 205 | 7.0 | 12.0 | 0.00 | 0.00 | 0.00 | 65 | 1010.7 |
| 20260506165542 | 64 | 200 | 3.0 | 13.0 | 0.00 | 0.00 | 0.00 | 65 | 1010.6 |
| 20260506165041 | 64 | 213 | 5.0 | 13.0 | 0.00 | 0.00 | 0.00 | 65 | 1010.5 |
| 20260506164542 | 64 | 244 | 5.0 | 13.0 | 0.00 | 0.00 | 0.00 | 65 | 1010.6 |
| 20260506164044 | 64 | 234 | 6.0 | 14.0 | 0.00 | 0.00 | 0.00 | 65 | 1010.5 |
| 20260506163544 | 64 | 197 | 2.0 | 14.0 | 0.00 | 0.00 | 0.00 | 65 | 1010.5 |
| 20260506163100 | 64 | 250 | 7.0 | 14.0 | 0.00 | 0.00 | 0.00 | 65 | 1010.4 |
| 20260506162543 | 64 | 211 | 2.0 | 16.0 | 0.00 | 0.00 | 0.00 | 65 | 1010.5 |
| 20260506162044 | 64 | 236 | 8.0 | 16.0 | 0.00 | 0.00 | 0.00 | 65 | 1010.6 |
| 20260506161540 | 65 | 245 | 7.0 | 16.0 | 0.00 | 0.00 | 0.00 | 66 | 1010.5 |
| 20260506161042 | 65 | 231 | 7.0 | 14.0 | 0.00 | 0.00 | 0.00 | 66 | 1010.4 |
| 20260506160539 | 65 | 211 | 4.0 | 23.0 | 0.00 | 0.00 | 0.00 | 65 | 1010.5 |
| 20260506160040 | 65 | 218 | 5.0 | 23.0 | 0.00 | 0.00 | 0.00 | 65 | 1010.6 |
| 20260506155541 | 65 | 215 | 9.0 | 23.0 | 0.00 | 0.00 | 0.00 | 66 | 1010.5 |
| 20260506155039 | 65 | 239 | 3.0 | 12.0 | 0.00 | 0.00 | 0.00 | 65 | 1010.4 |
| 20260506154557 | 64 | 282 | 3.0 | 12.0 | 0.00 | 0.00 | 0.00 | 65 | 1010.3 |
| 20260506154039 | 64 | 282 | 4.0 | 10.0 | 0.00 | 0.00 | 0.00 | 65 | 1010.4 |
| 20260506153539 | 65 | 231 | 4.0 | 10.0 | 0.00 | 0.00 | 0.00 | 65 | 1010.5 |
| 20260506153049 | 65 | 227 | 1.0 | 11.0 | 0.00 | 0.00 | 0.00 | 65 | 1010.5 |
| 20260506152640 | 65 | 218 | 4.0 | 12.0 | 0.00 | 0.00 | 0.00 | 65 | 1010.4 |
| 20260506152038 | 65 | 229 | 4.0 | 14.0 | 0.00 | 0.00 | 0.00 | 65 | 1010.3 |
| 20260506151538 | 66 | 263 | 2.0 | 14.0 | 0.00 | 0.00 | 0.00 | 64 | 1010.3 |
| 20260506151038 | 66 | 233 | 4.0 | 10.0 | 0.00 | 0.00 | 0.00 | 64 | 1010.5 |
| 20260506150537 | 66 | 251 | 2.0 | 10.0 | 0.00 | 0.00 | 0.00 | 63 | 1010.4 |
| 20260506150037 | 66 | 210 | 3.0 | 10.0 | 0.00 | 0.00 | 0.00 | 63 | 1010.4 |
| 20260506145536 | 66 | 172 | 3.0 | 10.0 | 0.00 | 0.00 | 0.00 | 63 | 1010.4 |
| 20260506145037 | 67 | 194 | 2.0 | 12.0 | 0.00 | 0.00 | 0.00 | 62 | 1010.5 |
| 20260506144536 | 67 | 219 | 6.0 | 14.0 | 0.00 | 0.00 | 0.00 | 61 | 1010.5 |
| 20260506144036 | 67 | 204 | 6.0 | 14.0 | 0.00 | 0.00 | 0.00 | 61 | 1010.6 |
| 20260506143539 | 67 | 171 | 6.0 | 20.0 | 0.00 | 0.00 | 0.00 | 62 | 1010.5 |
| 20260506143046 | 67 | 198 | 6.0 | 20.0 | 0.00 | 0.00 | 0.00 | 62 | 1010.3 |
| 20260506142540 | 68 | 213 | 6.0 | 11.0 | 0.00 | 0.00 | 0.00 | 62 | 1010.3 |
| 20260506142034 | 69 | 208 | 5.0 | 11.0 | 0.00 | 0.00 | 0.00 | 61 | 1010.3 |
| 20260506141537 | 69 | 246 | 7.0 | 12.0 | 0.00 | 0.00 | 0.00 | 61 | 1010.4 |
| 20260506141034 | 70 | 215 | 7.0 | 12.0 | 0.00 | 0.00 | 0.00 | 61 | 1010.2 |
| 20260506140535 | 71 | 238 | 6.0 | 10.0 | 0.00 | 0.00 | 0.00 | 61 | 1010.4 |
| 20260506140032 | 70 | 204 | 5.0 | 13.0 | 0.00 | 0.00 | 0.00 | 63 | 1010.5 |
| 20260506135531 | 69 | 277 | 6.0 | 22.0 | 0.00 | 0.00 | 0.00 | 63 | 1010.6 |
| 20260506135030 | 68 | 217 | 7.0 | 22.0 | 0.00 | 0.00 | 0.00 | 64 | 1010.7 |
| 20260506134530 | 67 | 271 | 5.0 | 16.0 | 0.00 | 0.00 | 0.00 | 64 | 1010.8 |
| 20260506134029 | 67 | 209 | 7.0 | 17.0 | 0.00 | 0.00 | 0.00 | 65 | 1011.0 |
| 20260506133528 | 67 | 202 | 8.0 | 17.0 | 0.00 | 0.00 | 0.00 | 64 | 1010.9 |
| 20260506133030 | 67 | 242 | 7.0 | 14.0 | 0.00 | 0.00 | 0.00 | 64 | 1010.9 |
| 20260506132528 | 67 | 182 | 5.0 | 14.0 | 0.00 | 0.00 | 0.00 | 64 | 1011.0 |
| 20260506132028 | 67 | 266 | 6.0 | 12.0 | 0.00 | 0.00 | 0.00 | 65 | 1011.0 |
| 20260506131528 | 66 | 173 | 5.0 | 12.0 | 0.00 | 0.00 | 0.00 | 65 | 1011.2 |
| 20260506131028 | 66 | 178 | 6.0 | 12.0 | 0.00 | 0.00 | 0.00 | 64 | 1011.3 |
| 20260506130528 | 68 | 200 | 6.0 | 12.0 | 0.00 | 0.00 | 0.00 | 62 | 1011.3 |
| 20260506130028 | 69 | 219 | 6.0 | 17.0 | 0.00 | 0.00 | 0.00 | 62 | 1011.3 |
| 20260506125527 | 70 | 202 | 9.0 | 17.0 | 0.00 | 0.00 | 0.00 | 62 | 1011.2 |
| 20260506125028 | 70 | 208 | 7.0 | 12.0 | 0.00 | 0.00 | 0.00 | 63 | 1011.1 |
| 20260506124526 | 69 | 190 | 5.0 | 14.0 | 0.00 | 0.00 | 0.00 | 64 | 1011.1 |
| 20260506124026 | 68 | 250 | 5.0 | 14.0 | 0.00 | 0.00 | 0.00 | 64 | 1011.1 |
| 20260506123526 | 68 | 215 | 6.0 | 14.0 | 0.00 | 0.00 | 0.00 | 63 | 1011.3 |
| 20260506123027 | 69 | 221 | 7.0 | 17.0 | 0.00 | 0.00 | 0.00 | 62 | 1011.2 |
| 20260506122526 | 69 | 249 | 6.0 | 16.0 | 0.00 | 0.00 | 0.00 | 62 | 1011.1 |
| 20260506122024 | 69 | 262 | 9.0 | 16.0 | 0.00 | 0.00 | 0.00 | 61 | 1011.2 |
| 20260506121524 | 69 | 219 | 7.0 | 23.0 | 0.00 | 0.00 | 0.00 | 63 | 1010.9 |
| 20260506121022 | 68 | 225 | 8.0 | 23.0 | 0.00 | 0.00 | 0.00 | 63 | 1011.1 |
| 20260506120521 | 67 | 225 | 7.0 | 14.0 | 0.00 | 0.00 | 0.00 | 63 | 1011.1 |
| 20260506120023 | 67 | 208 | 7.0 | 14.0 | 0.00 | 0.00 | 0.00 | 62 | 1011.2 |
| 20260506115521 | 67 | 209 | 8.0 | 14.0 | 0.00 | 0.00 | 0.00 | 62 | 1011.2 |
| 20260506115021 | 67 | 184 | 5.0 | 17.0 | 0.00 | 0.00 | 0.00 | 62 | 1011.1 |
| 20260506114522 | 67 | 224 | 9.0 | 17.0 | 0.00 | 0.00 | 0.00 | 63 | 1011.1 |
| 20260506114018 | 67 | 257 | 5.0 | 10.0 | 0.00 | 0.00 | 0.00 | 63 | 1011.1 |
| 20260506113518 | 66 | 234 | 6.0 | 11.0 | 0.00 | 0.00 | 0.00 | 63 | 1011.3 |
| 20260506113018 | 66 | 213 | 4.0 | 15.0 | 0.00 | 0.00 | 0.00 | 64 | 1011.2 |
| 20260506112523 | 65 | 195 | 6.0 | 15.0 | 0.00 | 0.00 | 0.00 | 64 | 1011.3 |
| 20260506112021 | 65 | 200 | 6.0 | 14.0 | 0.00 | 0.00 | 0.00 | 65 | 1011.4 |
| 20260506111517 | 65 | 236 | 3.0 | 12.0 | 0.00 | 0.00 | 0.00 | 65 | 1011.3 |
| 20260506111016 | 65 | 279 | 4.0 | 15.0 | 0.00 | 0.00 | 0.00 | 64 | 1011.4 |
| 20260506110520 | 65 | 140 | 5.0 | 20.0 | 0.00 | 0.00 | 0.00 | 64 | 1011.5 |
| 20260506110016 | 65 | 214 | 8.0 | 20.0 | 0.00 | 0.00 | 0.00 | 65 | 1011.5 |
| 20260506105516 | 65 | 208 | 4.0 | 17.0 | 0.00 | 0.00 | 0.00 | 65 | 1011.5 |
| 20260506105015 | 65 | 204 | 6.0 | 17.0 | 0.00 | 0.00 | 0.00 | 65 | 1011.5 |
| 20260506104515 | 66 | 217 | 5.0 | 14.0 | 0.00 | 0.00 | 0.00 | 65 | 1011.5 |
| 20260506104015 | 67 | 269 | 4.0 | 14.0 | 0.00 | 0.00 | 0.00 | 65 | 1011.5 |
| 20260506103513 | 66 | 225 | 2.0 | 10.0 | 0.00 | 0.00 | 0.00 | 65 | 1011.4 |
| 20260506103012 | 65 | 199 | 3.0 | 7.0 | 0.00 | 0.00 | 0.00 | 65 | 1011.4 |
| 20260506102511 | 64 | 196 | 4.0 | 7.0 | 0.00 | 0.00 | 0.00 | 64 | 1011.4 |
| 20260506102010 | 63 | 203 | 3.0 | 8.0 | 0.00 | 0.00 | 0.00 | 64 | 1011.7 |
| 20260506101510 | 63 | 211 | 1.0 | 8.0 | 0.00 | 0.00 | 0.00 | 64 | 1011.7 |
| 20260506101009 | 63 | 221 | 2.0 | 7.0 | 0.00 | 0.00 | 0.00 | 64 | 1011.7 |
| 20260506100509 | 63 | 227 | 1.0 | 7.0 | 0.00 | 0.00 | 0.00 | 64 | 1011.6 |
| 20260506100009 | 63 | 280 | 1.0 | 11.0 | 0.00 | 0.00 | 0.00 | 65 | 1011.7 |
| 20260506095511 | 63 | 242 | 3.0 | 11.0 | 0.00 | 0.00 | 0.00 | 64 | 1011.8 |
| 20260506095013 | 63 | 214 | 4.0 | 9.0 | 0.00 | 0.00 | 0.00 | 64 | 1011.7 |
| 20260506094509 | 63 | 238 | 3.0 | 9.0 | 0.00 | 0.00 | 0.00 | 64 | 1011.7 |
| 20260506094008 | 63 | 227 | 1.0 | 7.0 | 0.00 | 0.00 | 0.00 | 64 | 1011.6 |
| 20260506093508 | 63 | 205 | 2.0 | 6.0 | 0.00 | 0.00 | 0.00 | 64 | 1011.6 |
| 20260506093008 | 63 | 221 | 1.0 | 6.0 | 0.00 | 0.00 | 0.00 | 65 | 1011.6 |
| 20260506092509 | 62 | 190 | 3.0 | 6.0 | 0.00 | 0.00 | 0.00 | 65 | 1011.7 |
| 20260506092008 | 62 | 213 | 3.0 | 9.0 | 0.00 | 0.00 | 0.00 | 65 | 1011.7 |
| 20260506091508 | 62 | 205 | 5.0 | 9.0 | 0.00 | 0.00 | 0.00 | 65 | 1011.7 |
| 20260506091008 | 62 | 167 | 5.0 | 11.0 | 0.00 | 0.00 | 0.00 | 65 | 1011.7 |
| 20260506090507 | 62 | 183 | 5.0 | 11.0 | 0.00 | 0.00 | 0.00 | 65 | 1011.6 |
| 20260506090007 | 63 | 169 | 4.0 | 10.0 | 0.00 | 0.00 | 0.00 | 66 | 1011.7 |
| 20260506085506 | 63 | 188 | 6.0 | 10.0 | 0.00 | 0.00 | 0.00 | 66 | 1011.6 |
| 20260506085007 | 63 | 214 | 5.0 | 10.0 | 0.00 | 0.00 | 0.00 | 66 | 1011.5 |
| 20260506084506 | 64 | 201 | 4.0 | 9.0 | 0.00 | 0.00 | 0.00 | 65 | 1011.6 |
| 20260506084006 | 64 | 163 | 6.0 | 10.0 | 0.00 | 0.00 | 0.00 | 66 | 1011.7 |
| 20260506083505 | 64 | 183 | 4.0 | 10.0 | 0.00 | 0.00 | 0.00 | 65 | 1011.5 |
| 20260506083003 | 63 | 156 | 5.0 | 11.0 | 0.00 | 0.00 | 0.00 | 65 | 1011.6 |
| 20260506082504 | 62 | 189 | 5.0 | 11.0 | 0.00 | 0.00 | 0.00 | 66 | 1011.5 |
| 20260506082001 | 62 | 179 | 5.0 | 11.0 | 0.00 | 0.00 | 0.00 | 66 | 1011.7 |
| 20260506081501 | 62 | 206 | 5.0 | 10.0 | 0.00 | 0.00 | 0.00 | 66 | 1011.6 |
| 20260506081100 | 61 | 209 | 4.0 | 10.0 | 0.00 | 0.00 | 0.00 | 66 | 1011.5 |
| 20260506080600 | 61 | 134 | 3.0 | 8.0 | 0.00 | 0.00 | 0.00 | 66 | 1011.4 |